Regional Weather Roundup
Issued by NWS

Home | Current Version | Previous Version | Text Only | Print | Product List | Glossary On
Versions: 1 2 3 4 5 6 7 8 9 10 11 12 13 14 15 16 17 18 19 20 21 22 23 24 25 26 27 28 29 30 31 32 33 34 35 36 37 38 39 40 41 42 43 44 45 46 47 48 49 50
000
ASCA42 TJSJ 231610
RWRPR
PUERTO RICO/U.S. VIRGIN ISLANDS HOURLY WEATHER ROUNDUP
NATIONAL WEATHER SERVICE SAN JUAN PR
1200 PM AST SAT MAY 23 2015

PRZ001-004-231700-
PUERTO RICO

CITY           SKY/WX    TMP DP  RH WIND       PRES   REMARKS
SAN JUAN LMM   MOSUNNY   88  75  66 E21       30.13F HX  97
MAYAGUEZ       MOSUNNY   90  72  55 NE9       30.14F HX  96
AGUADILLA      SUNNY     88  73  62 E18G26    30.13F HX  96
CEIBA          PTSUNNY   90  75  62 E13G20    30.15F HX 100
$$

PRZ006-007-231700-
U.S. VIRGIN ISLANDS

CITY           SKY/WX    TMP DP  RH WIND       PRES   REMARKS
CHARLOTTE AMA  CLOUDY    84  72  65 SE18      30.12F
CHRISTIANSTED  MOSUNNY   90  73  58 E20       30.12F HX  98
$$

HOURLY WEATHER ROUNDUP FOR THE NEWS MEDIA

CITY           SKY/WX    TMP DP  RH WIND       PRES   REMARKS
ORLANDO        MOSUNNY   89  68  49 NE13      30.25S HX  93
NEW YORK       MOSUNNY   60  20  21 W14       30.43S
NEWARK         MOSUNNY   61  23  23 NW10G20   30.42F
CHICAGO        MOSUNNY   72  41  32 SE9       30.31F
HARTFORD       SUNNY     55  21  26 NW7       30.33S
BOSTON         MOSUNNY   56  19  23 NW15G22   30.32F
DALLAS         LGT RAIN  74  70  87 SE17      30.09F FOG
PHILADELPHIA   MOSUNNY   61  25  25 VRB7      30.46S
LOS ANGELES    PTSUNNY   61  52  72 E5        30.09S
WASHINGTON DC  MOSUNNY   63  30  28 E3        30.47F


USA.gov is the U.S. government's official web portal to all federal, state and local government web resources and services.